Find Starlink 33545

NORAD ID: 62101 Int'l Des: 2024-220 Owner: SPXS Country: US Constellation: starlink operational
LEOCIRCULAR

实时位置

正在加载3D地球...

关于 Starlink 33545

正在加载描述...

即将过境

Passes for default location (London). Set your location on the main map for personalized predictions.

高度历史

Loading altitude history...

两行轨道根数

1 62101U 24220P 26127.66516391 .00021944 00000-0 80438-3 0 9991
2 62101 43.0014 232.2336 0001524 259.0971 100.9709 15.27587889 82040
Epoch: May 7, 2026 • Age: 7 hours

当前状态

高度 492.3 km
速度 7.62 km/s
星下点 -35.66°S, 114.56°W
发射日期 Nov 25, 2024
运行时间 1.4 years
类型 internet

技术详情

分类 Payload
质量 530.00 kg
干质量 500.00 kg
总质量 530.00 kg
长度 0.30 m
直径 4.10 m
跨度 29.00 m
形状 Box + pan
制造商 SPXS
平台类型 Starlink V2MO
阶段状态 In Orbit
所有者/国家 SPXS/US

Most Searched